FENGYUN 1C DEB, 30822

Orbit data source: Space-Track

FENGYUN 1C DEB, 30822 is space debris in SSO originally from a launch on Mon, 10 May 1999 UTC launched from the Taiyaun Space Center, China (TSC). Fengyun 1C debris stems from the Chinese weather satellite Fengyun-1C, which was intentionally destroyed by a Chinese anti-satellite missile in 2007. This event dramatically increased the amount of space debris, with thousands of trackable fragments posing hazards to satellites and human spaceflight. The Fengyun 1C debris cloud has become a focal point in discussions about space sustainability and the need for international regulations to prevent the creation of new debris.

Loading next visibility...
Identifier
30822, 1999-025AVG
Orbit
SSO
Country
Flag of CNCN / PRC
Related business
Manufacturer
Unknown
Mission
Spacecraft
Bus & Motor
Unknown
Mass
Unknown
Launch date (UTC)
1999-05-10 (27 years ago)
Launch vehicle
Unknown
Launch site
Taiyaun Space Center, China (TSC)
Object type
Payload
Rocket body
Debris
Shape & HBR
Unknown shape, 0.1 m
Radar Cross Section
Small (<0.1 m²)

Expand to show TLE details & history
Last TLE update: 6 hours ago

TLE from 6 hours ago
0 FENGYUN 1C DEB
1 30822U 99025AVG 26038.06361840  .00000641  00000-0  36760-3 0  9993
2 30822  98.7301  69.6024 0074996 125.2665 292.7294 14.11429250974963
Epoch: 2026-02-07T01:31Z
TLE epoch observation values (Epoch: 2026-02-07T01:31:36.629Z)
Latitude
56.28408°
Longitude
-103.7249°
Altitude
843.227 km
Speed
7.447 km/s
True Right ascension
03h 45m 28s
True Declination
56° 07' 37"
Sunlit
Object was in daylight at epoch
Visualization orbit readout
Latitude
Unknown
Longitude
Unknown
Altitude
Unknown
Speed
Unknown
Apparent Right ascension
Unknown
Apparent Declination
Unknown
Sunlit
N/A
Visualization observer readout
Local Sidereal Time
10:01:51
Azimuth
Unknown
Elevation
Unknown
Doppler factor
Unknown
Orbital elements
Apogee altitude
905.876 km
Perigee altitude
797.435 km
Semi-major axis
7,229.793 km
Eccentricity
0.0075
Inclination
98.7301°
RAAN
69.6024°
Arg. of periapsis
125.2665°
True anomaly
291.93389°
Mean anomaly
292.7294°
Eccentric anomaly
292.33193°
Mean motion
3.53065 °/min
Orbital period
101.96 mins
BSTAR
0.0003676
Loading maneuver chart data...
Computing Atmospheric mass density...

Documentation

Showing up to 5 results
|